STARLINK-35599 (66102 NORAD) Tracking and Keplerian Element Data

This shows tracking and keplerian element data for the satellite.

Feedback or suggestion? Click here.




ElementValue
Catalog66102
NameSTARLINK-35599
Epoch Orbit1062
Epoch Day353.62287032
Epoch Year2025
RAAN115.9464
Inclination53.1608
Eccentricity0.0001345
Argument of Perigee81.6705
Mean Anonmoly278.4448
Mean Motion15.30206941
Decay Rate0.00019569
L11 66102U 25236S 25353.62287032 .00019569 00000+0 67094-3 0 9999
L22 66102 53.1608 115.9464 0001345 81.6705 278.4448 15.30206941 10627



Live tracking and technical data element details for STARLINK-35599 (NORAD 66102). STARLINK-35599 can be tracked NOW for your location showing map with azimuth and elevation plus other details from your city location.







IsCatalogInMostPopularTable: catalog: 66102, numindb: 4
Update: records affected: 1



GetName: 66102 STARLINK-35599

Hit Count: updated at: Mon, 09 Feb 2026 09:17:00 GMT